sat.trackr.live / text

‹ back to catalog

MARINA

NORAD 69920 · 2026-156BD

PAYLOAD ACTIVE UNKNOWN

§ Identity

Operator
Country
SVK
Launch date
2026-07-07
Launch site
AFWTR
Launch vehicle
Mass (kg)
RCS (m²)

Purposes: comms, tech_demo

External: N2YO · Heavens-Above · Gunter

§ Orbital elements

Epoch: 2026-09-19T10:43:11.738496Z

Period
96.50 min
Inclination
97.7440°
Eccentricity
0.0005835
Mean motion
14.92176795 rev/d
Perigee alt
587.1 km
Apogee alt
595.2 km
Semi-major
6,969.3 km
B*
1.3464e-4
RAAN
161.6799°
Arg perigee
270.1869°
Mean anomaly
89.8681°
Rev number
1,105

§ Raw data

MARINA1 69920U 26156BD  26262.44666364  .00001315  00000+0  13464-3 0  99932 69920  97.7440 161.6799 0005835 270.1869  89.8681 14.92176795 11050

JSON: /api/v1/satellites/69920 · /tle

For live sub-satellite position, see the globe view (requires WebGL).

§ Visibility from observer

Set your observer location to see the next 7 days of passes ≥ 10°. The values pass through the URL so the page stays shareable.

No JS? Fill the form by hand. The geolocation button needs JavaScript.